This is the latest recevied weather packets stored in our database for station/object W0JRT-6. If no packets are shown the sender has not sent any weather packets the latest 10 day(s).
| Time | Temp. | Humidity | Pressure | Rain* | Wind** | Luminosity | Snow |
|---|---|---|---|---|---|---|---|
| 1778000407 | 10° C | 87% | 1010.6 hPa | 5.59 mm | - | - | - |
| 1777999205 | 10° C | 87% | 1010.7 hPa | 5.59 mm | - | - | - |
| 1777998600 | 10° C | 89% | 1010.7 hPa | 5.59 mm | - | - | - |
| 1777998003 | 10° C | 88% | 1010.9 hPa | 5.59 mm | - | - | - |
| 1777997409 | 9.44° C | 87% | 1010.7 hPa | 5.33 mm | - | - | - |
| 1777996804 | 10° C | 85% | 1010.9 hPa | 5.08 mm | - | - | - |
| 1777996197 | 10° C | 89% | 1010.7 hPa | 4.83 mm | - | - | - |
| 1777995597 | 10° C | 88% | 1010.9 hPa | 4.83 mm | - | - | - |
| 1777994999 | 10° C | 89% | 1011.2 hPa | 4.83 mm | - | - | - |
| 1777994405 | 9.44° C | 89% | 1010.8 hPa | 4.83 mm | - | - | - |
| 1777993801 | 9.44° C | - | 1010.7 hPa | 4.57 mm | - | - | - |
| 1777993197 | 9.44° C | 90% | 1010.6 hPa | 4.57 mm | - | - | - |
| 1777992011 | 9.44° C | - | 1010.5 hPa | 4.32 mm | - | - | - |
| 1777991407 | 9.44° C | 90% | 1010.4 hPa | 4.32 mm | - | - | - |
| 1777990797 | 9.44° C | 92% | 1010.5 hPa | 3.81 mm | - | - | - |
| 1777989602 | 8.89° C | 92% | 1010.9 hPa | 3.3 mm | - | - | - |
| 1777988997 | 8.89° C | 93% | 1010.5 hPa | 3.05 mm | - | - | - |
| 1777988406 | 8.89° C | 92% | 1010.8 hPa | 2.79 mm | - | - | - |
| 1777987797 | 8.89° C | 92% | 1010.5 hPa | 2.54 mm | - | - | - |
| 1777987207 | 8.89° C | 92% | 1010.4 hPa | 2.29 mm | - | - | - |
| 1777986606 | 8.89° C | 91% | 1010.6 hPa | 1.78 mm | - | - | - |
| 1777986005 | 9.44° C | 88% | 1010 hPa | 1.52 mm | - | - | - |
| 1777985398 | 9.44° C | 86% | 1009.5 hPa | 1.02 mm | - | - | - |
| 1777984201 | 10° C | 81% | 1008.5 hPa | 0.76 mm | - | - | - |
| 1777983604 | 10° C | 78% | 1008 hPa | 0.76 mm | - | - | - |
* Rain since midnight (hover to see other rain measurements)
** Current wind speed in m/s (hover to see current wind gust speed)